GW1342 Weather Reports


time (UTC)temp
C
wind
direction
speed
KPH
gust
KPH
rain 1hr
cm
rain 24hr
cm
rain mn
cm
humidity
%
barometer
mb
20260507144401 26 0 17.7 38.6 0.00 0.00 0.00 69 987.2
20260507143403 26 0 16.1 40.2 0.00 0.00 0.00 69 987.7
20260507142909 26 23 19.3 40.2 0.00 0.00 0.00 69 987.8
20260507142401 26 338 17.7 35.4 0.00 0.00 0.00 68 987.7
20260507141907 27 23 17.7 43.5 0.00 0.00 0.00 68 987.8
20260507141402 26 68 17.7 43.5 0.00 0.00 0.00 68 988.0
20260507140915 26 23 11.3 27.4 0.00 0.00 0.00 70 988.5
20260507140401 26 0 14.5 27.4 0.00 0.00 0.00 70 988.9
20260507135906 26 0 16.1 29.0 0.00 0.00 0.00 71 989.0
20260507135403 26 23 12.9 29.0 0.00 0.00 0.00 71 989.2
20260507134912 25 0 19.3 32.2 0.00 0.00 0.00 72 989.4
20260507133906 25 0 17.7 32.2 0.00 0.00 0.00 71 989.8
20260507133402 25 45 12.9 25.7 0.00 0.00 0.00 72 989.7
20260507132353 25 0 14.5 25.7 0.00 0.00 0.00 71 989.9
20260507131852 26 23 12.9 29.0 0.00 0.00 0.00 71 989.8
20260507130844 25 68 17.7 35.4 0.00 0.00 0.00 72 989.9
20260507130343 25 23 16.1 32.2 0.00 0.00 0.00 72 990.0
20260507125831 25 23 14.5 29.0 0.00 0.00 0.00 74 989.9
20260507125330 25 0 8.0 29.0 0.00 0.00 0.00 75 989.8
20260507124829 24 68 9.7 17.7 0.00 0.00 0.00 76 990.0
20260507124329 24 23 9.7 17.7 0.00 0.00 0.00 77 990.0
20260507123828 24 0 11.3 17.7 0.00 0.00 0.00 76 990.2
20260507123324 24 23 8.0 14.5 0.00 0.00 0.00 78 990.3
20260507122821 23 338 9.7 17.7 0.00 0.00 0.00 79 990.1
20260507122318 23 23 6.4 24.1 0.00 0.00 0.00 79 990.0
20260507121815 23 338 6.4 24.1 0.00 0.00 0.00 80 990.3
20260507120811 23 23 9.7 14.5 0.00 0.00 0.00 80 990.3
20260507120302 23 45 9.7 17.7 0.00 0.00 0.00 81 990.4
20260507115803 23 45 9.7 17.7 0.00 0.00 0.00 81 990.2
20260507115302 23 68 4.8 17.7 0.00 0.00 0.00 82 990.5
20260507114303 23 45 6.4 17.7 0.00 0.00 0.00 81 990.4
20260507113801 23 0 8.0 17.7 0.00 0.00 0.00 81 990.2
20260507112803 23 45 6.4 20.9 0.00 0.00 0.00 81 990.3
20260507112301 23 90 8.0 20.9 0.00 0.00 0.00 81 990.6
20260507111803 23 23 8.0 17.7 0.00 0.00 0.00 81 990.5
20260507111301 23 23 6.4 17.7 0.00 0.00 0.00 80 990.3
20260507110802 23 0 12.9 20.9 0.00 0.00 0.00 80 990.2
20260507110304 23 68 8.0 20.9 0.00 0.00 0.00 80 990.3
20260507105306 23 0 12.9 22.5 0.00 0.00 0.00 79 990.3
20260507104801 23 338 12.9 22.5 0.00 0.00 0.00 79 990.5
20260507104301 23 45 6.4 17.7 0.00 0.00 0.00 80 990.5
20260507103803 23 90 9.7 17.7 0.00 0.00 0.00 80 990.1
20260507102802 23 0 6.4 14.5 0.00 0.00 0.00 79 990.0
20260507101803 23 338 4.8 17.7 0.00 0.00 0.00 80 990.1
20260507100802 23 45 6.4 20.9 0.00 0.00 0.00 80 989.8
20260507095801 23 0 4.8 17.7 0.00 0.00 0.00 81 989.6
20260507095305 23 23 6.4 17.7 0.00 0.00 0.00 80 989.8
20260507094801 23 45 8.0 14.5 0.00 0.00 0.00 80 990.1
20260507094259 23 23 6.4 17.7 0.00 0.00 0.00 80 990.0
20260507093755 23 23 4.8 17.7 0.00 0.00 0.00 80 990.1
20260507093252 23 45 4.8 12.9 0.00 0.00 0.00 80 990.0
20260507092749 23 0 8.0 17.7 0.00 0.00 0.00 81 989.9
20260507092246 23 45 6.4 17.7 0.00 0.00 0.00 80 990.2
20260507091743 23 0 6.4 14.5 0.00 0.00 0.00 81 990.2
20260507091241 23 338 8.0 14.5 0.00 0.00 0.00 80 990.0
20260507090737 23 45 6.4 12.9 0.00 0.00 0.00 80 990.3
20260507090234 23 45 6.4 11.3 0.00 0.00 0.00 80 990.2
20260507085732 23 45 4.8 11.3 0.00 0.00 0.00 80 990.4
20260507084733 24 23 6.4 12.9 0.00 0.00 0.00 79 990.3
20260507084229 23 45 8.0 14.5 0.00 0.00 0.00 80 990.3
20260507083730 23 45 6.4 17.7 0.00 0.00 0.00 80 990.2
20260507082731 24 45 9.7 17.7 0.00 0.00 0.00 79 990.1
20260507082230 24 23 8.0 20.9 0.00 0.00 0.00 79 989.9
20260507081733 24 45 6.4 20.9 0.00 0.00 0.00 79 990.1
20260507081229 24 0 11.3 24.1 0.00 0.00 0.00 79 990.2
20260507080729 24 45 4.8 24.1 0.00 0.00 0.00 79 990.2
20260507080231 24 23 6.4 25.7 0.00 0.00 0.00 79 990.2
20260507075730 24 23 14.5 25.7 0.00 0.00 0.00 79 990.0
20260507074730 24 68 6.4 17.7 0.00 0.00 0.00 78 989.9
20260507073733 25 23 8.0 29.0 0.00 0.00 0.00 78 990.1
20260507072732 25 68 9.7 17.7 0.00 0.00 0.00 77 990.2
20260507071729 25 68 8.0 20.9 0.00 0.00 0.00 77 990.4
20260507071230 25 0 11.3 32.2 0.00 0.00 0.00 77 990.3
20260507070729 25 338 8.0 32.2 0.00 0.00 0.00 76 990.4
20260507070232 25 45 8.0 20.9 0.00 0.00 0.00 76 990.4
20260507065729 25 338 6.4 20.9 0.00 0.00 0.00 75 990.2
20260507065229 25 0 6.4 20.9 0.00 0.00 0.00 75 990.5
20260507064730 25 338 9.7 20.9 0.00 0.00 0.00 75 990.5
20260507064229 25 45 8.0 22.5 0.00 0.00 0.00 75 990.6
20260507063729 25 23 11.3 22.5 0.00 0.00 0.00 75 990.5
20260507063230 25 45 11.3 22.5 0.00 0.00 0.00 75 990.7
20260507062730 25 45 9.7 22.5 0.00 0.00 0.00 75 990.5
20260507062228 25 23 6.4 22.5 0.00 0.00 0.00 75 990.6
20260507061728 25 23 8.0 22.5 0.00 0.00 0.00 74 990.8
20260507061222 25 45 9.7 17.7 0.00 0.00 0.00 75 991.0
20260507060719 25 45 6.4 22.5 0.00 0.00 0.00 74 990.9
20260507060219 25 23 11.3 22.5 0.00 0.00 0.00 74 990.8
20260507055715 25 0 12.9 22.5 0.00 0.00 0.00 74 990.8
20260507055211 25 338 8.0 22.5 0.00 0.00 0.00 76 991.0
20260507054708 25 0 9.7 22.5 0.00 0.00 0.00 76 991.0
20260507054202 25 0 8.0 24.1 0.00 0.00 0.00 76 991.0
20260507053704 25 45 6.4 24.1 0.00 0.00 0.00 77 991.3
20260507053202 25 0 12.9 24.1 0.00 0.00 0.00 77 991.2
20260507052703 25 23 9.7 22.5 0.00 0.00 0.00 77 991.7
20260507052201 25 45 8.0 17.7 0.00 0.00 0.00 78 991.4
20260507051700 25 0 8.0 20.9 0.00 0.00 0.00 78 991.3
20260507051202 25 23 6.4 20.9 0.00 0.00 0.00 78 991.4
20260507050701 25 90 11.3 20.9 0.00 0.00 0.00 78 991.7
20260507050202 25 0 8.0 17.7 0.00 0.00 0.00 78 991.6
20260507045701 25 23 4.8 24.1 0.00 0.00 0.00 78 991.6
20260507045203 25 0 11.3 24.1 0.00 0.00 0.00 78 991.5
20260507043701 25 0 9.7 24.1 0.00 0.00 0.00 78 991.6
20260507043202 25 23 6.4 20.9 0.00 0.00 0.00 78 991.9
20260507042702 25 0 8.0 20.9 0.00 0.00 0.00 78 991.8
20260507042201 25 0 8.0 24.1 0.00 0.00 0.00 78 992.0
20260507041704 25 0 12.9 24.1 0.00 0.00 0.00 78 992.4
20260507041201 25 90 6.4 17.7 0.00 0.00 0.00 78 992.3
20260507035703 25 23 8.0 17.7 0.00 0.00 0.00 78 992.7
20260507035203 25 23 6.4 17.7 0.00 0.00 0.00 77 992.4
20260507034703 25 23 9.7 17.7 0.00 0.00 0.00 77 992.4
20260507034203 25 0 11.3 17.7 0.00 0.00 0.00 77 992.6
20260507033702 25 23 4.8 17.7 0.00 0.00 0.00 78 992.4
20260507033201 26 23 9.7 24.1 0.00 0.00 0.00 76 992.6
20260507032700 26 23 8.0 24.1 0.00 0.00 0.00 76 992.6
20260507032201 26 68 6.4 17.7 0.00 0.00 0.00 77 992.4
20260507031701 25 45 6.4 20.9 0.00 0.00 0.00 77 992.5
20260507031202 25 45 8.0 24.1 0.00 0.00 0.00 78 992.3
20260507030701 25 23 11.3 24.1 0.00 0.00 0.00 78 992.2
20260507030202 25 45 9.7 24.1 0.00 0.00 0.00 78 992.3
20260507025703 25 23 9.7 17.7 0.00 0.00 0.00 79 992.2
20260507025202 25 0 8.0 14.5 0.00 0.00 0.00 79 992.3
20260507024704 25 0 8.0 25.7 0.00 0.00 0.00 79 992.1
20260507024202 25 338 8.0 25.7 0.00 0.00 0.00 79 992.5
20260507023701 25 68 6.4 22.5 0.00 0.00 0.00 80 992.8
20260507023204 25 45 4.8 22.5 0.00 0.00 0.00 80 992.8
20260507022703 25 23 3.2 20.9 0.00 0.00 0.00 80 992.8
20260507022202 25 23 4.8 20.9 0.00 0.00 0.00 80 992.9
20260507021701 25 45 6.4 17.7 0.00 0.00 0.00 80 992.9
20260507021201 25 23 6.4 17.7 0.00 0.00 0.00 80 992.8
20260507020701 25 0 9.7 17.7 0.00 0.00 0.00 80 993.0
20260507020203 25 90 4.8 20.9 0.00 0.00 0.00 80 993.0
20260507015702 25 45 9.7 20.9 0.00 0.00 0.00 79 993.0
20260507015201 25 45 6.4 17.7 0.00 0.00 0.00 80 993.2
20260507014702 25 0 8.0 17.7 0.00 0.00 0.00 80 993.4
20260507014202 25 68 6.4 12.9 0.00 0.00 0.00 80 993.0
20260507013203 25 23 4.8 12.9 0.00 0.00 0.00 82 993.3
20260507012203 25 23 4.8 11.3 0.00 0.00 0.00 82 993.3
20260507011701 25 0 6.4 11.3 0.00 0.00 0.00 82 993.5
20260507010702 25 45 3.2 12.9 0.00 0.00 0.00 84 993.7
20260507010202 25 68 3.2 11.3 0.00 0.00 0.00 84 993.6
20260507005701 24 45 3.2 9.7 0.00 0.00 0.00 85 993.8
20260507005201 24 68 3.2 9.7 0.00 0.00 0.00 86 993.8
20260507004701 24 68 3.2 9.7 0.00 0.00 0.00 85 993.8
20260507004201 24 68 3.2 6.4 0.00 0.00 0.00 86 993.6
20260507003703 24 68 0.0 6.4 0.00 0.00 0.00 86 993.5
20260507003202 24 68 4.8 6.4 0.00 0.00 0.00 86 993.7
20260507002701 24 68 1.6 6.4 0.00 0.00 0.00 86 993.9
20260507001702 24 90 3.2 6.4 0.00 0.00 0.00 86 993.7
20260507001232 24 68 3.2 6.4 0.00 0.00 0.00 86 993.7
20260507000703 24 90 0.0 6.4 0.00 0.00 0.00 86 993.7
20260507000204 24 90 3.2 6.4 0.00 0.00 0.00 86 993.7
20260506235702 24 90 3.2 6.4 0.00 0.00 0.00 86 993.7
20260506235202 24 68 1.6 6.4 0.00 0.00 0.00 87 993.9
20260506234703 24 68 3.2 6.4 0.00 0.00 0.00 87 994.2
20260506234214 24 68 3.2 6.4 0.00 0.00 0.00 86 993.8
20260506233654 24 90 3.2 6.4 0.00 0.00 0.00 86 994.1
20260506232649 24 90 1.6 6.4 0.00 0.00 0.00 85 994.1
20260506232146 24 68 3.2 6.4 0.00 0.00 0.00 85 994.2
20260506231645 24 90 0.0 6.4 0.00 0.00 0.00 86 993.9
20260506231141 25 68 1.6 6.4 0.00 0.00 0.00 85 993.9
20260506230637 25 68 3.2 6.4 0.00 0.00 0.00 85 993.9
20260506230134 25 68 1.6 6.4 0.00 0.00 0.00 85 994.0
20260506225632 25 68 1.6 6.4 0.00 0.00 0.00 85 993.7
20260506225130 25 45 3.2 6.4 0.00 0.00 0.00 84 994.1
20260506224630 25 68 1.6 6.4 0.00 0.00 0.00 84 993.9
20260506224129 25 113 3.2 11.3 0.00 0.00 0.00 85 993.9
20260506223629 25 90 3.2 11.3 0.00 0.00 0.00 85 993.9
20260506223131 25 90 3.2 6.4 0.00 0.00 0.00 85 994.2
20260506222629 25 90 1.6 6.4 0.00 0.00 0.00 85 994.0
20260506222132 25 90 3.2 6.4 0.00 0.00 0.00 86 993.9
20260506221130 25 68 0.0 6.4 0.00 0.00 0.00 85 994.2
20260506220630 25 90 1.6 6.4 0.00 0.00 0.00 85 994.0
20260506220132 25 68 0.0 6.4 0.00 0.00 0.00 86 994.0
20260506215630 25 90 3.2 6.4 0.00 0.00 0.00 86 993.8
20260506215130 25 68 1.6 3.2 0.00 0.00 0.00 87 994.0
20260506213631 25 68 0.0 3.2 0.00 0.00 0.00 89 994.0
20260506213131 25 68 0.0 6.4 0.00 0.00 0.00 89 994.2
20260506212630 25 68 1.6 6.4 0.00 0.00 0.00 89 994.2
20260506212129 25 68 0.0 3.2 0.00 0.00 0.00 89 994.2
20260506211633 25 68 1.6 3.2 0.00 0.00 0.00 89 994.0
20260506211130 25 113 1.6 3.2 0.00 0.00 0.00 89 994.2
20260506210629 25 113 1.6 3.2 0.00 0.00 0.00 89 994.3
20260506210131 25 113 0.0 3.2 0.00 0.00 0.00 89 994.2
20260506205630 25 68 0.0 3.2 0.00 0.00 0.00 90 994.2
20260506205130 25 68 1.6 3.2 0.00 0.00 0.00 89 994.3
20260506204631 26 45 0.0 3.2 0.00 0.00 0.00 88 994.2
20260506204131 26 45 1.6 3.2 0.00 0.00 0.00 87 994.6
20260506203631 26 45 1.6 3.2 0.00 0.00 0.00 87 994.5
20260506203129 27 45 1.6 3.2 0.00 0.00 0.00 86 994.5
20260506202629 27 45 1.6 6.4 0.00 0.00 0.00 86 994.5
20260506202130 27 23 3.2 6.4 0.00 0.00 0.00 84 994.5
20260506200630 27 68 1.6 3.2 0.00 0.00 0.00 82 994.3
20260506200130 27 68 0.0 3.2 0.00 0.00 0.00 82 994.4
20260506195129 27 68 0.0 3.2 0.00 0.00 0.00 80 994.6
20260506194631 28 68 0.0 3.2 0.00 0.00 0.00 80 994.7
20260506194129 28 68 3.2 3.2 0.00 0.00 0.00 78 994.4
20260506193629 28 23 1.6 3.2 0.00 0.00 0.00 79 994.5
20260506193131 28 90 1.6 3.2 0.00 0.00 0.00 78 994.6
20260506192630 28 68 1.6 3.2 0.00 0.00 0.00 75 994.5
20260506192132 28 68 1.6 6.4 0.00 0.00 0.00 75 994.8
20260506191130 29 68 3.2 9.7 0.00 0.00 0.00 73 994.8
20260506190130 29 45 3.2 9.7 0.00 0.00 0.00 72 994.9
20260506185630 29 68 6.4 20.9 0.00 0.00 0.00 73 994.9
20260506184629 30 338 4.8 12.9 0.00 0.00 0.00 71 994.9
20260506184132 30 23 6.4 11.3 0.00 0.00 0.00 72 995.0
20260506181630 30 23 12.9 29.0 0.00 0.00 0.00 69 994.8
20260506181125 30 23 6.4 24.1 0.00 0.00 0.00 69 995.2
20260506180622 31 68 9.7 17.7 0.00 0.00 0.00 71 995.4
20260506180121 31 0 8.0 17.7 0.00 0.00 0.00 70 995.3
20260506175616 31 23 11.3 17.7 0.00 0.00 0.00 69 995.4
20260506174602 31 45 6.4 24.1 0.00 0.00 0.00 66 995.6
20260506174103 31 45 14.5 24.1 0.00 0.00 0.00 65 995.6
20260506172603 31 0 6.4 20.9 0.00 0.00 0.00 67 995.9
20260506172101 30 0 11.3 20.9 0.00 0.00 0.00 66 996.2
20260506171604 31 68 9.7 17.7 0.00 0.00 0.00 68 996.1
20260506171104 31 45 12.9 22.5 0.00 0.00 0.00 68 996.2
20260506165103 30 338 9.7 27.4 0.00 0.00 0.00 68 996.6
20260506164602 31 68 11.3 17.7 0.00 0.00 0.00 69 996.6
20260506164102 31 0 4.8 11.3 0.00 0.00 0.00 68 996.6
20260506163603 30 23 6.4 17.7 0.00 0.00 0.00 69 996.9
20260506163102 31 0 6.4 17.7 0.00 0.00 0.00 66 997.0
20260506162602 31 0 3.2 14.5 0.00 0.00 0.00 66 996.8
20260506162101 31 68 6.4 14.5 0.00 0.00 0.00 66 997.0
20260506161603 30 45 6.4 11.3 0.00 0.00 0.00 68 997.4
20260506161101 30 45 4.8 12.9 0.00 0.00 0.00 68 997.1
20260506160603 30 45 4.8 14.5 0.00 0.00 0.00 68 997.4
20260506155603 30 338 8.0 14.5 0.00 0.00 0.00 68 997.5
20260506154603 30 45 6.4 11.3 0.00 0.00 0.00 71 997.4
20260506154101 30 45 4.8 11.3 0.00 0.00 0.00 70 997.7
20260506153601 30 90 3.2 12.9 0.00 0.00 0.00 72 998.0
20260506153103 30 338 6.4 12.9 0.00 0.00 0.00 72 997.9
20260506152601 30 45 4.8 9.7 0.00 0.00 0.00 69 997.9
20260506152102 30 338 6.4 9.7 0.00 0.00 0.00 71 998.0
20260506151601 29 68 4.8 11.3 0.00 0.00 0.00 72 998.1
20260506151100 29 0 4.8 11.3 0.00 0.00 0.00 72 998.2
20260506150606 28 23 4.8 11.3 0.00 0.00 0.00 75 998.2